TimeMST,TemperatureF,Dew PointF,Humidity,Sea Level PressureIn,VisibilityMPH,Wind Direction,Wind SpeedMPH,Gust SpeedMPH,PrecipitationIn,Events,Conditions,WindDirDegrees,DateUTC
12:13 AM,10.6,6.4,83,29.95,10.0,NW,4.6,-,N/A,,Clear,320,2013-02-12 07:13:00
12:33 AM,8.6,5.4,87,29.96,10.0,NW,6.9,-,N/A,,Clear,310,2013-02-12 07:33:00
12:53 AM,13.5,9.1,83,29.96,10.0,NNW,6.9,-,N/A,,Scattered Clouds,330,2013-02-12 07:53:00
1:13 AM,15.8,9.9,77,29.96,10.0,NNW,3.5,-,N/A,,Mostly Cloudy,330,2013-02-12 08:13:00
1:33 AM,12.0,8.2,85,29.96,10.0,NNW,3.5,-,N/A,,Scattered Clouds,340,2013-02-12 08:33:00
1:53 AM,12.2,9.5,89,29.96,10.0,NW,5.8,-,N/A,,Clear,310,2013-02-12 08:53:00
2:13 AM,11.1,7.7,86,29.95,10.0,WNW,4.6,-,N/A,,Clear,300,2013-02-12 09:13:00
2:33 AM,13.1,9.5,86,29.95,10.0,NNW,6.9,-,N/A,,Clear,340,2013-02-12 09:33:00
2:53 AM,17.1,10.8,76,29.94,10.0,NNW,6.9,-,N/A,,Clear,340,2013-02-12 09:53:00
3:13 AM,13.1,7.9,80,29.94,10.0,NW,6.9,-,N/A,,Clear,320,2013-02-12 10:13:00
3:33 AM,13.3,8.8,82,29.94,10.0,NNW,8.1,-,N/A,,Clear,330,2013-02-12 10:33:00
3:53 AM,14.7,9.3,79,29.93,10.0,NNW,8.1,-,N/A,,Clear,330,2013-02-12 10:53:00
4:13 AM,13.1,7.9,80,29.94,10.0,NNW,8.1,-,N/A,,Clear,330,2013-02-12 11:13:00
4:33 AM,14.4,8.4,77,29.94,10.0,NNW,6.9,-,N/A,,Clear,330,2013-02-12 11:33:00
4:53 AM,13.6,7.7,77,29.94,10.0,NNW,6.9,-,N/A,,Clear,340,2013-02-12 11:53:00
5:13 AM,15.4,7.5,71,29.95,10.0,NNW,6.9,-,N/A,,Clear,340,2013-02-12 12:13:00
5:33 AM,12.6,6.3,76,29.95,10.0,NNW,6.9,-,N/A,,Clear,330,2013-02-12 12:33:00
5:53 AM,13.6,7.2,75,29.95,10.0,NNW,8.1,-,N/A,,Clear,340,2013-02-12 12:53:00
6:13 AM,16.2,6.6,66,29.96,10.0,NNW,9.2,-,N/A,,Clear,340,2013-02-12 13:13:00
6:33 AM,17.1,5.9,62,29.96,10.0,NNW,9.2,-,N/A,,Clear,340,2013-02-12 13:33:00
6:53 AM,16.3,6.8,66,29.97,10.0,NNW,6.9,-,N/A,,Clear,340,2013-02-12 13:53:00
7:13 AM,14.4,5.7,69,29.97,10.0,NNW,6.9,-,N/A,,Clear,340,2013-02-12 14:13:00
7:33 AM,16.0,6.4,66,29.97,10.0,NNW,8.1,-,N/A,,Clear,330,2013-02-12 14:33:00
7:53 AM,18.0,7.5,64,29.97,10.0,NW,5.8,-,N/A,,Clear,320,2013-02-12 14:53:00
8:13 AM,20.3,8.2,60,29.97,10.0,NNW,6.9,-,N/A,,Clear,330,2013-02-12 15:13:00
8:33 AM,23.0,9.1,55,29.97,10.0,NNW,6.9,-,N/A,,Clear,330,2013-02-12 15:33:00
8:53 AM,24.8,8.6,50,29.97,10.0,NW,4.6,-,N/A,,Clear,320,2013-02-12 15:53:00
9:13 AM,26.1,7.3,45,29.98,10.0,NW,6.9,-,N/A,,Clear,320,2013-02-12 16:13:00
9:33 AM,27.9,4.3,37,29.99,10.0,NW,4.6,-,N/A,,Clear,320,2013-02-12 16:33:00
9:53 AM,29.3,2.1,31,29.99,10.0,North,8.1,-,N/A,,Clear,350,2013-02-12 16:53:00
10:13 AM,30.2,1.9,30,29.99,10.0,NNW,9.2,-,N/A,,Clear,340,2013-02-12 17:13:00
10:33 AM,30.9,0.1,27,29.99,10.0,NNW,9.2,-,N/A,,Clear,340,2013-02-12 17:33:00
10:53 AM,31.6,0.5,27,30.00,10.0,North,6.9,-,N/A,,Clear,350,2013-02-12 17:53:00
11:13 AM,32.0,-0.0,26,30.00,10.0,NNW,6.9,-,N/A,,Clear,340,2013-02-12 18:13:00
11:33 AM,32.0,0.5,26,30.00,10.0,North,8.1,-,N/A,,Clear,360,2013-02-12 18:33:00
11:53 AM,32.0,-1.1,24,29.99,10.0,NNE,9.2,-,N/A,,Clear,30,2013-02-12 18:53:00
12:13 PM,32.9,-3.6,21,29.99,10.0,NNW,4.6,-,N/A,,Clear,330,2013-02-12 19:13:00
12:33 PM,33.3,-5.4,19,29.98,10.0,North,4.6,-,N/A,,Clear,360,2013-02-12 19:33:00
12:53 PM,33.8,-5.1,19,29.97,10.0,ENE,5.8,-,N/A,,Clear,60,2013-02-12 19:53:00
1:13 PM,34.7,-7.6,16,29.97,10.0,North,10.4,-,N/A,,Clear,350,2013-02-12 20:13:00
1:33 PM,35.4,-9.4,14,29.97,10.0,North,9.2,-,N/A,,Scattered Clouds,360,2013-02-12 20:33:00
1:53 PM,34.0,-9.4,15,29.96,10.0,North,6.9,-,N/A,,Mostly Cloudy,360,2013-02-12 20:53:00
2:13 PM,33.8,-9.9,15,29.96,10.0,North,10.4,-,N/A,,Overcast,10,2013-02-12 21:13:00
2:33 PM,33.8,-10.7,14,29.96,10.0,NE,3.5,-,N/A,,Overcast,40,2013-02-12 21:33:00
2:53 PM,33.1,-12.3,14,29.96,10.0,NW,4.6,-,N/A,,Overcast,310,2013-02-12 21:53:00
3:13 PM,35.4,-10.3,14,29.96,10.0,NW,4.6,-,N/A,,Scattered Clouds,320,2013-02-12 22:13:00
3:33 PM,35.1,-10.7,14,29.96,10.0,Calm,Calm,-,N/A,,Clear,0,2013-02-12 22:33:00
3:53 PM,35.4,-6.9,16,29.96,10.0,North,9.2,-,N/A,,Scattered Clouds,10,2013-02-12 22:53:00
4:13 PM,34.5,-6.5,17,29.96,10.0,North,8.1,-,N/A,,Clear,360,2013-02-12 23:13:00
4:33 PM,33.8,-8.0,16,29.96,10.0,North,8.1,16.1,N/A,,Scattered Clouds,10,2013-02-12 23:33:00
4:53 PM,32.9,-6.5,18,29.96,10.0,North,5.8,16.1,N/A,,Scattered Clouds,360,2013-02-12 23:53:00
5:13 PM,30.9,-3.5,23,29.97,10.0,North,4.6,-,N/A,,Clear,360,2013-02-13 00:13:00
5:33 PM,28.4,-2.6,26,29.98,10.0,North,6.9,-,N/A,,Clear,350,2013-02-13 00:33:00
5:53 PM,27.3,-2.0,28,29.98,10.0,North,5.8,-,N/A,,Clear,360,2013-02-13 00:53:00
6:13 PM,25.0,-0.9,33,29.99,10.0,North,5.8,-,N/A,,Clear,360,2013-02-13 01:13:00
6:33 PM,25.7,-2.9,29,29.99,10.0,North,9.2,-,N/A,,Clear,350,2013-02-13 01:33:00
6:53 PM,25.3,-2.9,29,29.99,10.0,North,6.9,-,N/A,,Clear,350,2013-02-13 01:53:00
7:13 PM,25.0,-3.6,29,29.99,10.0,North,6.9,-,N/A,,Clear,350,2013-02-13 02:13:00
7:33 PM,24.6,-3.6,29,29.99,10.0,North,5.8,-,N/A,,Clear,350,2013-02-13 02:33:00
7:53 PM,23.5,-3.3,31,29.99,10.0,North,4.6,-,N/A,,Clear,350,2013-02-13 02:53:00
8:13 PM,21.2,0.9,41,29.99,10.0,NNW,4.6,-,N/A,,Clear,330,2013-02-13 03:13:00
8:33 PM,18.5,1.8,48,30.00,10.0,West,6.9,-,N/A,,Clear,260,2013-02-13 03:33:00
8:53 PM,17.6,2.5,52,30.00,10.0,WNW,5.8,-,N/A,,Clear,290,2013-02-13 03:53:00
9:13 PM,16.0,3.0,57,29.99,10.0,West,5.8,-,N/A,,Clear,280,2013-02-13 04:13:00
9:33 PM,16.7,2.7,54,29.99,10.0,WNW,5.8,-,N/A,,Clear,290,2013-02-13 04:33:00
9:53 PM,16.3,3.0,56,29.99,10.0,WNW,6.9,-,N/A,,Clear,300,2013-02-13 04:53:00
10:13 PM,17.2,2.1,52,29.99,10.0,WNW,6.9,-,N/A,,Clear,300,2013-02-13 05:13:00
10:33 PM,18.5,2.3,49,29.99,10.0,West,6.9,-,N/A,,Clear,280,2013-02-13 05:33:00
10:53 PM,18.9,2.5,49,29.98,10.0,West,6.9,-,N/A,,Clear,270,2013-02-13 05:53:00
11:13 PM,18.3,2.8,51,29.98,10.0,West,8.1,-,N/A,,Clear,270,2013-02-13 06:13:00
11:33 PM,16.9,2.8,54,29.99,10.0,West,8.1,-,N/A,,Clear,280,2013-02-13 06:33:00
11:53 PM,17.8,2.3,51,29.98,10.0,West,6.9,-,N/A,,Clear,280,2013-02-13 06:53:00